QPF
0.00 0.01 0.03 0.05 0.05 0.04 0.04 0.04 0.04 0.03 0.02 0.02 0.01 0.00 0.00 0.00 0.00 0.00 0.00 0.00 0.00 0.00 0.00 0.00 0.00 0.00 0.00 0.00 0.00 0.00 0.00 0.00 0.00 0.00 0.00 0.00 0.00 0.00 0.00 0.00 0.00 0.00 0.00 0.00
0.00 0.01 0.02 0.04 0.06 0.05 0.03 0.02 0.01 0.01 0.00 0.00 0.00 0.00 0.00 0.00 0.00 0.00 0.00 0.00 0.00 0.00 0.00 0.00 0.00 0.00 0.00 0.00 0.00 0.00 0.00 0.00 0.00 0.00 0.00 0.00 0.00 0.00 0.00 0.00 0.00 0.00 0.00 0.00
0.00 0.00 0.01 0.03 0.04 0.03 0.01 0.00 0.00 0.00 0.00 0.00 0.00 0.00 0.00 0.00 0.00 0.00 0.00 0.00 0.00 0.00 0.00 0.00 0.00 0.00 0.00 0.00 0.00 0.00 0.00 0.00 0.00 0.00 0.00 0.00 0.00 0.00 0.01 0.01 0.01 0.00 0.00 0.00
0.00 0.00 0.02 0.02 0.01 0.01 0.00 0.00 0.00 0.00 0.00 0.00 0.00 0.00 0.00 0.00 0.00 0.00 0.00 0.00 0.00 0.00 0.00 0.00 0.00 0.00 0.00 0.00 0.00 0.00 0.00 0.00 0.00 0.00 0.01 0.01 0.01 0.01 0.01 0.01 0.01 0.00 0.00 0.00
0.00 0.00 0.02 0.01 0.00 0.00 0.00 0.00 0.00 0.00 0.00 0.00 0.00 0.00 0.00 0.00 0.00 0.00 0.00 0.00 0.00 0.00 0.00 0.00 0.00 0.00 0.00 0.00 0.00 0.00 0.01 0.01 0.00 0.00 0.01 0.01 0.01 0.00 0.00 0.01 0.01 0.00 0.00 0.00
0.00 0.00 0.01 0.01 0.00 0.00 0.00 0.00 0.00 0.00 0.00 0.00 0.00 0.00 0.00 0.00 0.00 0.00 0.00 0.00 0.00 0.00 0.00 0.00 0.00 0.00 0.00 0.00 0.01 0.01 0.01 0.01 0.01 0.01 0.01 0.01 0.01 0.00 0.00 0.01 0.01 0.00 0.00 0.00
0.00 0.00 0.00 0.00 0.00 0.00 0.00 0.00 0.00 0.00 0.00 0.00 0.00 0.00 0.00 0.00 0.00 0.00 0.00 0.00 0.00 0.00 0.00 0.00 0.00 0.00 0.01 0.01 0.01 0.01 0.01 0.01 0.01 0.01 0.01 0.01 0.00 0.01 0.01 0.01 0.01 0.01 0.00 0.00
0.00 0.00 0.00 0.00 0.00 0.00 0.00 0.00 0.00 0.00 0.00 0.00 0.00 0.00 0.00 0.00 0.00 0.00 0.00 0.00 0.00 0.00 0.00 0.00 0.00 0.01 0.02 0.02 0.01 0.01 0.01 0.02 0.01 0.01 0.01 0.01 0.01 0.01 0.01 0.01 0.01 0.01 0.01 0.01
0.00 0.00 0.00 0.00 0.00 0.00 0.00 0.00 0.00 0.00 0.00 0.00 0.00 0.00 0.00 0.00 0.00 0.00 0.00 0.00 0.00 0.00 0.00 0.00 0.01 0.01 0.03 0.02 0.02 0.02 0.02 0.02 0.02 0.01 0.01 0.01 0.01 0.01 0.01 0.01 0.01 0.01 0.01 0.02
0.00 0.00 0.00 0.00 0.00 0.00 0.00 0.00 0.00 0.00 0.00 0.00 0.00 0.00 0.00 0.00 0.00 0.00 0.00 0.00 0.00 0.00 0.01 0.01 0.01 0.02 0.02 0.03 0.03 0.04 0.03 0.03 0.02 0.02 0.01 0.01 0.01 0.01 0.01 0.01 0.02 0.01 0.02 0.02
0.00 0.00 0.00 0.00 0.00 0.00 0.00 0.00 0.00 0.00 0.00 0.00 0.00 0.00 0.00 0.00 0.00 0.00 0.00 0.00 0.01 0.01 0.02 0.02 0.02 0.02 0.02 0.03 0.03 0.04 0.04 0.04 0.03 0.03 0.02 0.02 0.01 0.01 0.01 0.01 0.01 0.01 0.01 0.01
0.00 0.00 0.00 0.00 0.00 0.00 0.00 0.00 0.00 0.00 0.00 0.00 0.00 0.00 0.00 0.00 0.00 0.00 0.00 0.01 0.01 0.02 0.02 0.02 0.03 0.03 0.02 0.02 0.04 0.05 0.05 0.04 0.03 0.02 0.02 0.02 0.01 0.01 0.01 0.01 0.00 0.00 0.00 0.01
0.00 0.00 0.00 0.00 0.00 0.00 0.00 0.00 0.00 0.00 0.00 0.00 0.00 0.00 0.00 0.00 0.00 0.00 0.01 0.02 0.03 0.03 0.03 0.03 0.03 0.03 0.03 0.03 0.04 0.05 0.06 0.04 0.03 0.03 0.02 0.02 0.02 0.02 0.01 0.01 0.01 0.01 0.00 0.00
0.00 0.00 0.00 0.00 0.00 0.00 0.00 0.00 0.00 0.00 0.00 0.00 0.00 0.00 0.00 0.00 0.00 0.00 0.01 0.02 0.03 0.03 0.03 0.04 0.04 0.04 0.04 0.04 0.04 0.05 0.05 0.05 0.04 0.03 0.03 0.03 0.03 0.03 0.02 0.02 0.02 0.02 0.01 0.00
0.00 0.00 0.00 0.00 0.00 0.00 0.00 0.00 0.00 0.00 0.00 0.00 0.00 0.00 0.00 0.00 0.00 0.01 0.01 0.02 0.03 0.03 0.03 0.05 0.05 0.06 0.05 0.05 0.05 0.05 0.06 0.05 0.04 0.04 0.03 0.03 0.03 0.03 0.02 0.02 0.02 0.02 0.01 0.01
0.00 0.00 0.00 0.00 0.00 0.00 0.00 0.00 0.00 0.00 0.00 0.00 0.00 0.00 0.00 0.00 0.00 0.01 0.01 0.02 0.04 0.04 0.05 0.07 0.07 0.08 0.08 0.07 0.07 0.06 0.06 0.06 0.06 0.05 0.03 0.03 0.03 0.02 0.02 0.02 0.02 0.02 0.02 0.02
0.00 0.00 0.00 0.00 0.00 0.00 0.00 0.00 0.00 0.00 0.00 0.00 0.00 0.00 0.00 0.00 0.01 0.01 0.01 0.02 0.04 0.04 0.06 0.08 0.09 0.09 0.09 0.09 0.09 0.09 0.08 0.06 0.06 0.05 0.03 0.02 0.03 0.02 0.02 0.02 0.02 0.02 0.03 0.03
0.00 0.00 0.00 0.00 0.00 0.00 0.00 0.00 0.00 0.00 0.00 0.00 0.00 0.00 0.00 0.01 0.01 0.01 0.01 0.02 0.03 0.04 0.05 0.07 0.07 0.08 0.08 0.09 0.10 0.10 0.09 0.06 0.05 0.05 0.03 0.03 0.03 0.02 0.02 0.02 0.02 0.03 0.03 0.03
0.00 0.00 0.00 0.00 0.00 0.00 0.00 0.00 0.00 0.00 0.00 0.00 0.00 0.00 0.00 0.01 0.01 0.01 0.01 0.02 0.05 0.07 0.06 0.05 0.06 0.07 0.08 0.09 0.10 0.10 0.08 0.07 0.06 0.05 0.04 0.03 0.02 0.01 0.02 0.02 0.02 0.03 0.03 0.03
0.00 0.00 0.00 0.00 0.00 0.00 0.00 0.00 0.00 0.00 0.00 0.00 0.00 0.00 0.00 0.00 0.01 0.01 0.01 0.02 0.05 0.07 0.06 0.05 0.05 0.06 0.08 0.09 0.09 0.09 0.08 0.09 0.09 0.08 0.05 0.03 0.02 0.02 0.02 0.02 0.03 0.03 0.04 0.03
0.00 0.00 0.00 0.00 0.00 0.00 0.00 0.00 0.00 0.00 0.00 0.00 0.00 0.00 0.00 0.00 0.01 0.01 0.02 0.03 0.03 0.05 0.05 0.05 0.05 0.05 0.07 0.09 0.09 0.08 0.09 0.08 0.08 0.07 0.05 0.03 0.02 0.02 0.02 0.02 0.03 0.03 0.02 0.02
0.00 0.00 0.00 0.00 0.00 0.00 0.00 0.00 0.00 0.00 0.00 0.00 0.00 0.00 0.00 0.00 0.01 0.01 0.02 0.03 0.03 0.05 0.05 0.04 0.04 0.05 0.05 0.06 0.06 0.07 0.07 0.07 0.06 0.05 0.04 0.03 0.02 0.02 0.02 0.02 0.02 0.02 0.02 0.01
0.00 0.00 0.00 0.00 0.00 0.00 0.00 0.00 0.00 0.00 0.00 0.00 0.00 0.00 0.00 0.01 0.01 0.02 0.03 0.02 0.03 0.03 0.03 0.03 0.04 0.04 0.05 0.04 0.06 0.07 0.06 0.05 0.05 0.05 0.03 0.02 0.01 0.02 0.02 0.02 0.02 0.01 0.01 0.00
0.00 0.00 0.00 0.00 0.00 0.00 0.00 0.00 0.00 0.00 0.00 0.00 0.00 0.00 0.00 0.00 0.01 0.01 0.02 0.03 0.03 0.02 0.01 0.02 0.03 0.05 0.05 0.05 0.05 0.06 0.06 0.06 0.05 0.05 0.04 0.02 0.02 0.02 0.03 0.03 0.02 0.01 0.00 0.00
0.00 0.00 0.00 0.00 0.00 0.00 0.00 0.00 0.00 0.00 0.00 0.00 0.00 0.00 0.00 0.00 0.01 0.01 0.01 0.02 0.02 0.02 0.02 0.02 0.03 0.05 0.07 0.08 0.07 0.06 0.06 0.05 0.05 0.06 0.05 0.04 0.04 0.04 0.04 0.02 0.01 0.01 0.00 0.00
0.00 0.00 0.00 0.00 0.00 0.00 0.00 0.00 0.00 0.00 0.00 0.00 0.00 0.00 0.00 0.00 0.00 0.00 0.01 0.01 0.02 0.02 0.01 0.01 0.02 0.03 0.05 0.07 0.08 0.07 0.06 0.06 0.07 0.07 0.08 0.07 0.06 0.05 0.04 0.03 0.02 0.01 0.01 0.01
0.00 0.00 0.00 0.00 0.00 0.00 0.00 0.00 0.00 0.00 0.00 0.00 0.00 0.00 0.00 0.00 0.00 0.00 0.00 0.01 0.01 0.02 0.03 0.02 0.03 0.03 0.03 0.04 0.05 0.06 0.07 0.07 0.07 0.07 0.07 0.07 0.06 0.05 0.05 0.04 0.03 0.03 0.03 0.02
MSLP
1013.23 1013.56 1013.89 1014.21 1014.50 1014.75 1014.95 1015.07 1015.10 1015.03 1014.87 1014.62 1014.31 1013.95 1013.58 1013.19 1012.82 1012.46 1012.10 1011.75 1011.40 1011.05 1010.70 1010.35 1010.03 1009.75 1009.51 1009.33 1009.20 1009.12 1009.08 1009.06 1009.05 1009.04 1009.01 1008.97 1008.92 1008.87 1008.82 1008.78 1008.73 1008.68 1008.59 1008.47
1013.91 1014.30 1014.62 1014.86 1015.03 1015.14 1015.17 1015.15 1015.06 1014.93 1014.74 1014.51 1014.24 1013.94 1013.60 1013.23 1012.83 1012.39 1011.92 1011.43 1010.92 1010.41 1009.93 1009.48 1009.08 1008.76 1008.51 1008.33 1008.22 1008.15 1008.10 1008.07 1008.03 1007.99 1007.94 1007.88 1007.82 1007.78 1007.76 1007.74 1007.74 1007.72 1007.67 1007.58
1014.58 1014.98 1015.27 1015.45 1015.52 1015.49 1015.40 1015.25 1015.07 1014.86 1014.64 1014.40 1014.15 1013.86 1013.53 1013.14 1012.69 1012.17 1011.59 1010.97 1010.33 1009.70 1009.11 1008.58 1008.13 1007.78 1007.52 1007.35 1007.23 1007.16 1007.10 1007.04 1006.97 1006.89 1006.80 1006.72 1006.66 1006.63 1006.62 1006.65 1006.68 1006.71 1006.71 1006.66
1015.18 1015.55 1015.79 1015.90 1015.88 1015.75 1015.55 1015.30 1015.03 1014.76 1014.49 1014.22 1013.95 1013.65 1013.30 1012.87 1012.37 1011.78 1011.12 1010.41 1009.67 1008.96 1008.30 1007.72 1007.25 1006.88 1006.62 1006.44 1006.32 1006.22 1006.13 1006.03 1005.92 1005.80 1005.68 1005.58 1005.51 1005.49 1005.51 1005.58 1005.66 1005.73 1005.77 1005.76
1015.67 1015.97 1016.13 1016.16 1016.05 1015.84 1015.55 1015.23 1014.88 1014.55 1014.23 1013.92 1013.61 1013.28 1012.89 1012.43 1011.88 1011.25 1010.54 1009.77 1009.00 1008.25 1007.56 1006.97 1006.49 1006.12 1005.85 1005.66 1005.51 1005.39 1005.26 1005.12 1004.96 1004.80 1004.65 1004.53 1004.47 1004.46 1004.52 1004.62 1004.74 1004.85 1004.93 1004.94
1016.00 1016.19 1016.26 1016.20 1016.02 1015.74 1015.39 1015.01 1014.61 1014.22 1013.85 1013.50 1013.15 1012.78 1012.36 1011.87 1011.30 1010.64 1009.91 1009.14 1008.36 1007.62 1006.94 1006.36 1005.88 1005.51 1005.23 1005.02 1004.85 1004.69 1004.52 1004.33 1004.13 1003.94 1003.77 1003.64 1003.58 1003.60 1003.68 1003.81 1003.96 1004.11 1004.21 1004.24
1016.11 1016.18 1016.16 1016.03 1015.80 1015.47 1015.09 1014.66 1014.22 1013.79 1013.39 1012.99 1012.61 1012.20 1011.76 1011.26 1010.68 1010.03 1009.32 1008.57 1007.83 1007.11 1006.46 1005.89 1005.42 1005.05 1004.76 1004.52 1004.32 1004.12 1003.91 1003.69 1003.46 1003.24 1003.06 1002.94 1002.89 1002.92 1003.02 1003.17 1003.33 1003.49 1003.60 1003.63
1016.00 1015.97 1015.88 1015.69 1015.43 1015.08 1014.68 1014.24 1013.78 1013.33 1012.89 1012.47 1012.06 1011.64 1011.18 1010.68 1010.12 1009.50 1008.82 1008.12 1007.42 1006.74 1006.12 1005.57 1005.11 1004.72 1004.40 1004.14 1003.89 1003.65 1003.41 1003.16 1002.92 1002.69 1002.51 1002.40 1002.36 1002.39 1002.50 1002.65 1002.81 1002.96 1003.06 1003.07
1015.69 1015.60 1015.45 1015.25 1014.97 1014.63 1014.23 1013.80 1013.35 1012.89 1012.44 1012.00 1011.58 1011.14 1010.69 1010.20 1009.67 1009.08 1008.46 1007.80 1007.14 1006.50 1005.89 1005.35 1004.87 1004.46 1004.10 1003.79 1003.50 1003.23 1002.96 1002.70 1002.45 1002.23 1002.06 1001.96 1001.92 1001.96 1002.06 1002.20 1002.34 1002.47 1002.53 1002.53
1015.24 1015.12 1014.96 1014.76 1014.50 1014.19 1013.82 1013.41 1012.97 1012.52 1012.07 1011.63 1011.20 1010.76 1010.32 1009.85 1009.35 1008.80 1008.22 1007.60 1006.97 1006.34 1005.73 1005.17 1004.65 1004.19 1003.78 1003.41 1003.07 1002.76 1002.47 1002.21 1001.97 1001.77 1001.63 1001.54 1001.52 1001.56 1001.64 1001.75 1001.86 1001.95 1001.99 1001.96
1014.73 1014.61 1014.47 1014.30 1014.08 1013.81 1013.47 1013.09 1012.67 1012.24 1011.79 1011.36 1010.93 1010.50 1010.07 1009.62 1009.14 1008.62 1008.07 1007.47 1006.84 1006.20 1005.56 1004.94 1004.36 1003.83 1003.34 1002.91 1002.52 1002.18 1001.88 1001.62 1001.41 1001.24 1001.13 1001.07 1001.06 1001.10 1001.17 1001.25 1001.33 1001.39 1001.40 1001.36
1014.23 1014.14 1014.04 1013.91 1013.74 1013.50 1013.21 1012.86 1012.46 1012.04 1011.61 1011.17 1010.75 1010.32 1009.90 1009.46 1009.00 1008.49 1007.94 1007.33 1006.68 1005.99 1005.29 1004.60 1003.93 1003.30 1002.73 1002.23 1001.79 1001.42 1001.12 1000.88 1000.70 1000.58 1000.51 1000.49 1000.51 1000.56 1000.62 1000.69 1000.75 1000.79 1000.79 1000.75
1013.79 1013.75 1013.70 1013.61 1013.48 1013.29 1013.02 1012.70 1012.32 1011.90 1011.47 1011.04 1010.61 1010.19 1009.76 1009.32 1008.86 1008.34 1007.76 1007.12 1006.42 1005.66 1004.88 1004.09 1003.31 1002.58 1001.92 1001.34 1000.86 1000.47 1000.18 999.97 999.85 999.79 999.78 999.82 999.87 999.95 1000.02 1000.09 1000.15 1000.18 1000.20 1000.19
1013.45 1013.45 1013.44 1013.39 1013.30 1013.13 1012.89 1012.58 1012.21 1011.80 1011.37 1010.93 1010.49 1010.06 1009.62 1009.17 1008.68 1008.13 1007.51 1006.81 1006.03 1005.18 1004.29 1003.39 1002.50 1001.67 1000.91 1000.27 999.75 999.36 999.09 998.94 998.88 998.90 998.97 999.08 999.20 999.32 999.43 999.52 999.59 999.64 999.69 999.72
1013.20 1013.23 1013.25 1013.23 1013.16 1013.01 1012.79 1012.49 1012.12 1011.71 1011.27 1010.82 1010.37 1009.92 1009.46 1008.98 1008.45 1007.85 1007.17 1006.39 1005.52 1004.57 1003.56 1002.54 1001.55 1000.61 999.78 999.09 998.55 998.16 997.94 997.85 997.87 997.99 998.16 998.35 998.55 998.74 998.90 999.03 999.14 999.23 999.31 999.40
1013.01 1013.06 1013.10 1013.10 1013.05 1012.91 1012.70 1012.40 1012.04 1011.63 1011.19 1010.73 1010.26 1009.79 1009.30 1008.77 1008.19 1007.53 1006.77 1005.90 1004.93 1003.87 1002.76 1001.63 1000.53 999.52 998.63 997.90 997.35 996.99 996.82 996.81 996.93 997.15 997.43 997.73 998.02 998.29 998.51 998.70 998.85 998.98 999.10 999.23
1012.84 1012.91 1012.96 1012.98 1012.94 1012.82 1012.61 1012.33 1011.97 1011.57 1011.13 1010.66 1010.18 1009.69 1009.16 1008.59 1007.94 1007.21 1006.37 1005.41 1004.34 1003.18 1001.97 1000.75 999.58 998.50 997.56 996.82 996.29 995.97 995.86 995.93 996.15 996.48 996.87 997.27 997.66 998.01 998.30 998.55 998.74 998.90 999.05 999.20
1012.67 1012.75 1012.82 1012.85 1012.82 1012.71 1012.53 1012.26 1011.93 1011.54 1011.11 1010.65 1010.16 1009.64 1009.08 1008.46 1007.76 1006.96 1006.04 1004.99 1003.83 1002.59 1001.30 1000.01 998.78 997.67 996.72 995.98 995.47 995.20 995.15 995.31 995.62 996.04 996.53 997.03 997.50 997.92 998.28 998.56 998.79 998.97 999.12 999.28
1012.48 1012.57 1012.66 1012.70 1012.69 1012.61 1012.45 1012.21 1011.91 1011.55 1011.14 1010.69 1010.20 1009.68 1009.09 1008.43 1007.68 1006.82 1005.83 1004.72 1003.50 1002.20 1000.85 999.53 998.27 997.14 996.19 995.47 994.99 994.77 994.78 995.00 995.38 995.88 996.44 997.01 997.54 998.02 998.41 998.72 998.96 999.14 999.28 999.40
1012.28 1012.39 1012.49 1012.55 1012.56 1012.51 1012.38 1012.18 1011.91 1011.59 1011.21 1010.78 1010.31 1009.78 1009.18 1008.50 1007.72 1006.81 1005.78 1004.63 1003.37 1002.05 1000.69 999.35 998.09 996.98 996.05 995.35 994.91 994.72 994.77 995.02 995.45 995.98 996.58 997.18 997.74 998.24 998.64 998.96 999.19 999.35 999.45 999.54
1012.08 1012.21 1012.32 1012.41 1012.44 1012.41 1012.32 1012.16 1011.93 1011.64 1011.30 1010.91 1010.46 1009.94 1009.34 1008.65 1007.85 1006.94 1005.90 1004.74 1003.48 1002.16 1000.81 999.50 998.28 997.19 996.29 995.63 995.21 995.04 995.10 995.37 995.79 996.32 996.91 997.50 998.06 998.54 998.93 999.23 999.43 999.56 999.63 999.66
1011.90 1012.04 1012.18 1012.28 1012.33 1012.33 1012.26 1012.13 1011.94 1011.70 1011.39 1011.03 1010.61 1010.11 1009.53 1008.85 1008.07 1007.16 1006.14 1005.01 1003.79 1002.51 1001.22 999.96 998.80 997.76 996.91 996.27 995.87 995.70 995.75 995.98 996.37 996.86 997.40 997.94 998.45 998.89 999.24 999.50 999.67 999.76 999.80 999.79
1011.74 1011.91 1012.05 1012.16 1012.23 1012.25 1012.20 1012.10 1011.95 1011.73 1011.46 1011.13 1010.74 1010.28 1009.72 1009.08 1008.33 1007.47 1006.49 1005.42 1004.27 1003.08 1001.87 1000.70 999.60 998.64 997.84 997.23 996.84 996.65 996.66 996.83 997.15 997.55 998.01 998.47 998.90 999.27 999.57 999.78 999.92 999.98 999.99 999.97
1011.60 1011.79 1011.95 1012.07 1012.15 1012.18 1012.15 1012.07 1011.93 1011.75 1011.51 1011.21 1010.85 1010.42 1009.91 1009.31 1008.61 1007.81 1006.92 1005.93 1004.88 1003.79 1002.69 1001.63 1000.63 999.75 999.01 998.43 998.04 997.82 997.77 997.87 998.09 998.39 998.73 999.08 999.42 999.71 999.94 1000.10 1000.21 1000.26 1000.26 1000.24
1011.44 1011.66 1011.84 1011.98 1012.07 1012.11 1012.10 1012.03 1011.92 1011.76 1011.54 1011.28 1010.95 1010.56 1010.09 1009.54 1008.91 1008.19 1007.39 1006.51 1005.57 1004.61 1003.64 1002.69 1001.81 1001.02 1000.34 999.80 999.41 999.16 999.05 999.06 999.17 999.35 999.57 999.81 1000.03 1000.24 1000.40 1000.52 1000.61 1000.65 1000.67 1000.67
1011.25 1011.50 1011.71 1011.88 1011.99 1012.05 1012.05 1012.01 1011.92 1011.78 1011.59 1011.35 1011.06 1010.70 1010.28 1009.79 1009.23 1008.59 1007.89 1007.12 1006.32 1005.48 1004.65 1003.83 1003.07 1002.37 1001.77 1001.27 1000.89 1000.62 1000.45 1000.38 1000.38 1000.45 1000.55 1000.67 1000.80 1000.91 1001.02 1001.10 1001.17 1001.22 1001.26 1001.30
1010.96 1011.27 1011.53 1011.73 1011.88 1011.98 1012.02 1012.00 1011.94 1011.83 1011.68 1011.47 1011.21 1010.89 1010.52 1010.08 1009.59 1009.03 1008.42 1007.76 1007.08 1006.37 1005.67 1004.99 1004.34 1003.75 1003.23 1002.78 1002.42 1002.14 1001.93 1001.80 1001.72 1001.68 1001.68 1001.71 1001.74 1001.78 1001.83 1001.88 1001.94 1002.00 1002.07 1002.15
Thickness
5728 5732 5728 5720 5718 5716 5704 5695 5680 5679 5674 5669 5669 5666 5661 5657 5651 5645 5640 5635 5629 5621 5615 5610 5604 5599 5594 5589 5585 5580 5574 5569 5566 5564 5562 5560 5558 5558 5559 5559 5561 5563 5565 5568
5720 5728 5721 5711 5711 5708 5702 5695 5686 5676 5665 5668 5665 5659 5652 5645 5640 5634 5629 5624 5618 5612 5605 5598 5592 5586 5581 5575 5571 5566 5561 5557 5555 5551 5549 5546 5545 5545 5544 5544 5544 5546 5548 5551
5705 5717 5713 5690 5696 5696 5690 5684 5677 5662 5658 5660 5654 5649 5643 5637 5631 5625 5619 5613 5606 5600 5593 5586 5580 5575 5568 5565 5560 5556 5552 5549 5546 5543 5540 5538 5537 5536 5534 5533 5533 5533 5535 5537
5697 5698 5684 5690 5704 5698 5684 5673 5670 5663 5658 5653 5647 5643 5639 5631 5623 5616 5610 5604 5597 5590 5583 5576 5571 5565 5561 5557 5552 5547 5544 5541 5539 5536 5534 5533 5531 5529 5528 5527 5526 5526 5527 5529
5687 5682 5682 5690 5695 5690 5677 5665 5665 5658 5652 5648 5643 5635 5630 5626 5618 5609 5601 5594 5586 5579 5572 5566 5561 5556 5551 5547 5543 5540 5537 5535 5533 5531 5529 5528 5526 5525 5525 5524 5523 5523 5523 5524
5685 5679 5670 5676 5692 5695 5678 5656 5659 5653 5644 5638 5629 5612 5612 5615 5607 5598 5591 5583 5575 5568 5561 5555 5550 5544 5539 5535 5532 5529 5528 5527 5526 5525 5523 5522 5522 5522 5522 5521 5521 5522 5522 5522
5677 5672 5671 5683 5690 5682 5650 5644 5651 5646 5637 5628 5616 5608 5607 5604 5597 5589 5580 5572 5564 5556 5548 5542 5537 5531 5526 5523 5521 5520 5520 5519 5518 5517 5517 5517 5517 5518 5517 5517 5518 5518 5518 5520
5670 5661 5662 5684 5679 5660 5649 5651 5646 5640 5632 5623 5615 5609 5602 5594 5586 5577 5568 5561 5553 5544 5537 5531 5526 5520 5516 5513 5513 5511 5510 5509 5509 5509 5510 5513 5511 5512 5512 5512 5512 5513 5513 5515
5675 5669 5676 5679 5671 5665 5656 5647 5643 5635 5628 5619 5610 5601 5593 5585 5575 5566 5558 5550 5542 5534 5528 5523 5517 5510 5506 5505 5503 5501 5498 5498 5499 5500 5502 5504 5504 5505 5506 5507 5508 5509 5510 5511
5680 5679 5678 5674 5669 5664 5658 5650 5642 5634 5624 5614 5603 5594 5584 5575 5566 5557 5549 5542 5535 5527 5520 5515 5510 5504 5500 5498 5495 5492 5490 5489 5490 5492 5494 5496 5497 5499 5501 5502 5504 5506 5507 5508
5675 5677 5674 5670 5665 5660 5655 5647 5638 5629 5619 5608 5597 5587 5577 5567 5558 5550 5543 5536 5529 5520 5514 5509 5505 5500 5496 5492 5489 5486 5485 5484 5485 5485 5486 5488 5491 5494 5497 5500 5502 5504 5506 5506
5668 5670 5663 5660 5661 5657 5649 5640 5631 5622 5612 5602 5590 5580 5571 5561 5553 5545 5539 5532 5524 5517 5511 5506 5501 5497 5494 5489 5485 5483 5481 5480 5480 5481 5481 5483 5486 5490 5495 5498 5501 5504 5505 5506
5681 5678 5669 5665 5660 5653 5645 5637 5628 5617 5606 5595 5586 5576 5566 5557 5550 5542 5535 5528 5522 5516 5510 5505 5500 5496 5493 5489 5485 5482 5479 5478 5477 5478 5479 5480 5482 5485 5489 5495 5499 5502 5504 5505
5686 5679 5669 5662 5654 5649 5641 5632 5623 5612 5601 5591 5581 5572 5563 5555 5547 5540 5534 5527 5522 5516 5510 5505 5500 5497 5494 5490 5487 5484 5481 5480 5479 5478 5478 5479 5481 5484 5488 5491 5494 5498 5501 5503
5682 5676 5666 5660 5652 5644 5636 5626 5616 5605 5596 5587 5577 5568 5560 5552 5545 5539 5534 5529 5523 5517 5512 5507 5503 5500 5496 5492 5489 5487 5484 5482 5481 5481 5481 5481 5482 5485 5488 5492 5494 5497 5499 5500
5678 5671 5664 5655 5646 5638 5630 5620 5609 5599 5591 5582 5573 5565 5557 5550 5544 5539 5534 5529 5523 5519 5515 5511 5507 5504 5500 5497 5493 5491 5488 5488 5487 5485 5484 5484 5485 5487 5490 5493 5495 5498 5499 5499
5671 5662 5656 5648 5640 5632 5623 5613 5604 5596 5587 5578 5570 5563 5556 5550 5544 5539 5535 5531 5526 5522 5518 5515 5512 5509 5506 5503 5499 5496 5493 5492 5493 5490 5489 5489 5489 5491 5492 5495 5497 5500 5502 5503
5670 5662 5654 5646 5635 5627 5618 5611 5602 5594 5584 5576 5569 5561 5554 5548 5543 5540 5537 5535 5532 5529 5525 5521 5518 5516 5514 5510 5506 5502 5500 5498 5497 5495 5495 5494 5494 5495 5497 5498 5501 5503 5505 5507
5666 5658 5651 5643 5634 5625 5616 5608 5600 5591 5583 5574 5566 5558 5551 5546 5543 5541 5539 5537 5535 5533 5530 5528 5525 5524 5522 5518 5515 5511 5508 5506 5504 5503 5502 5502 5502 5502 5503 5504 5506 5508 5510 5511
5662 5655 5647 5640 5632 5623 5614 5606 5598 5589 5581 5573 5565 5557 5551 5548 5545 5543 5541 5539 5536 5533 5531 5532 5532 5532 5530 5528 5526 5522 5519 5517 5515 5513 5512 5511 5510 5510 5511 5512 5513 5515 5517 5518
5656 5650 5644 5636 5628 5621 5612 5604 5595 5587 5579 5571 5563 5556 5551 5549 5547 5545 5544 5544 5542 5539 5537 5538 5539 5538 5538 5537 5537 5535 5532 5530 5527 5525 5523 5522 5520 5520 5519 5520 5521 5523 5524 5526
5652 5646 5640 5633 5625 5617 5609 5601 5593 5585 5578 5571 5564 5558 5554 5551 5549 5547 5546 5543 5543 5541 5542 5544 5544 5544 5545 5547 5548 5547 5545 5542 5540 5537 5535 5533 5531 5530 5530 5530 5531 5532 5533 5534
5647 5642 5636 5629 5621 5613 5605 5598 5590 5582 5575 5569 5563 5557 5553 5549 5548 5547 5547 5547 5547 5545 5547 5549 5548 5550 5553 5556 5556 5556 5555 5553 5551 5549 5547 5545 5543 5542 5541 5541 5541 5541 5542 5543
5644 5638 5632 5625 5618 5609 5601 5594 5587 5579 5572 5566 5561 5556 5552 5550 5549 5548 5547 5548 5549 5549 5552 5552 5554 5556 5559 5561 5561 5561 5561 5561 5559 5558 5556 5555 5554 5553 5552 5551 5551 5551 5552 5553
5641 5634 5627 5620 5612 5604 5597 5590 5583 5576 5570 5564 5559 5555 5552 5549 5547 5547 5549 5550 5551 5553 5555 5557 5559 5560 5563 5563 5564 5564 5565 5565 5565 5565 5564 5563 5562 5561 5561 5561 5560 5560 5561 5562
5636 5628 5621 5614 5607 5600 5593 5586 5578 5571 5565 5560 5557 5553 5551 5549 5547 5547 5548 5550 5551 5553 5555 5557 5560 5561 5563 5564 5565 5566 5567 5568 5569 5570 5570 5569 5568 5568 5568 5568 5568 5567 5568 5569
5629 5622 5614 5607 5601 5595 5589 5582 5574 5567 5561 5556 5552 5549 5547 5546 5545 5545 5546 5547 5549 5551 5552 5554 5556 5558 5560 5562 5563 5565 5566 5568 5569 5570 5571 5572 5572 5571 5571 5571 5571 5571 5572 5572